DECAYED

STARLINK-3666, 51978 (Decayed)

Orbit data source: Space-Track

STARLINK-3666, 51978 was a payload satellite owned by SpaceX/Seattle (US) in LEO that was launched on Wed, 09 Mar 2022 UTC via an FALCON 9 launch vehicle from the Air Force Eastern Test Range (AFETR). Payload-class satellites include a variety of spacecraft equipped with specific instruments for various scientific and technological missions. These include communications satellites like Starlink; space stations such as the ISS; scientific satellites like the Hubble; Earth observation satellites from companies like Planet Labs, Umbra, and HawkEye 360; GPS; miniature CubeSats for education and research; and military/defense satellites.

Not visible in the next 10 days
Identifier
51978, 2022-025Y
Orbit
Decayed
Country
Flag of USUS
Related business
Manufacturer
SpaceX/Seattle
Mission
Decayed Commercial Communications
Bus & Motor
STARLINK, Unknown motor
Mass
297 kg wet, ~275 kg dry
Launch date (UTC)
2022-03-09 (4 years ago)
Launch vehicle
FALCON 9
Launch site
Air Force Eastern Test Range (AFETR)
Object type
Payload
Rocket body
Debris
Shape & HBR
Box + 1 Pan, 10.1 m
Radar Cross Section
13.562 m², Large (>1 m²)

Expand to show TLE details & history
Last TLE update: 1 year ago

TLE from 1 year ago
0 STARLINK-3666
1 51978U 22025Y   25003.80417243  .11280237  12105-4  26119-2 0  9998
2 51978  53.1949 146.7436 0003343 346.0312 166.0958 16.29144223157558
Epoch: 2025-01-03T19:18Z
TLE epoch observation values (Epoch: 2025-01-03T19:18:00.497Z)
Latitude
22.03141°
Longitude
-83.9425°
Altitude
197.648 km
Speed
7.79 km/s
True Right ascension
20h 36m 53s
True Declination
21° 54' 07"
Sunlit
Object was in daylight at epoch
Visualization orbit readout
Latitude
Unknown
Longitude
Unknown
Altitude
Unknown
Speed
Unknown
Apparent Right ascension
Unknown
Apparent Declination
Unknown
Sunlit
N/A
Visualization observer readout
Local Sidereal Time
21:35:16
Azimuth
Unknown
Elevation
Unknown
Doppler factor
Unknown
Orbital elements
Apogee altitude
197.299 km
Perigee altitude
192.904 km
Semi-major axis
6,573.239 km
Eccentricity
0.00033
Inclination
53.1949°
RAAN
146.7436°
Arg. of periapsis
346.0312°
True anomaly
166.105°
Mean anomaly
166.0958°
Eccentric anomaly
166.1004°
Mean motion
4.07262 °/min
Orbital period
88.4 mins
BSTAR
0.0026119
Loading maneuver chart data...
Computing Atmospheric mass density...
Loading historical data...
Loading historical data...
Loading historical data...
Loading historical data...
Loading historical data...
Loading historical data...
Loading historical data...

Documentation

Showing up to 5 results
|